Location: The C. Gantt Observatory
(33.6981°N, 81.6836°W)
Time: 14:22:59
(UTC-04:00)

Daily predictions for brighter satellites

Satellite Brightness Start Highest point End
(mag) Time Altitude Azimuth Time Altitude Azimuth Time Altitude Azimuth
ATLAS 3B CENTAUR R/B 4.5 19:19:08 10° SW 19:26:36 46° SSE 19:46:02 10° E
Cosmos 2263 4.2 19:37:24 10° NNW 19:43:01 69° ENE 19:48:38 10° SSE
Yuri Rocket 4.4 19:41:27 10° SW 19:45:37 27° SSE 19:49:15 10° ESE
EXPRESS MD2 3.1 19:43:33 10° NW 19:46:06 68° SW 19:50:25 10° SE
Cosmos 1340 Rocket 3.1 19:44:44 10° N 19:48:40 46° E 19:52:35 10° SSE
Milstar 3 Cent rocket 3.4 19:44:24 10° SW 19:49:24 26° SSE 19:53:21 10° ESE
YAOGAN 1 4.0 19:47:32 10° S 19:51:39 44° W 19:55:48 10° NNW
Cosmos 2228 3.4 19:48:01 10° SSE 19:52:07 41° E 19:56:13 10° NNE
Resurs 01 Rocket 3.6 19:51:31 10° ENE 19:52:32 11° ENE 19:53:33 10° NE
CZ-4 R/B 4.2 19:53:35 10° SSW 19:56:56 24° W 20:00:21 10° NW
Geosat 4.3 19:52:44 10° SE 19:57:30 45° ENE 20:02:17 10° N
Cosmos 2184 Rocket 4.5 19:52:11 10° SSE 19:57:52 38° E 20:03:37 10° NNE
USA 81 4.3 19:54:57 10° N 20:00:03 47° E 20:05:06 10° SSE
Cosmos 1606 Rocket 3.9 19:57:53 10° SSW 20:02:13 72° W 20:06:33 10° N
ISS -2.1 20:00:14 10° SSE 20:02:20 16° SE 20:03:32 14° ESE
OAO 3 Copernicus 4.3 19:58:01 10° W 20:03:05 88° NNW 20:07:42 12° E
Cosmos 2150 Rocket 4.2 19:58:24 10° N 20:03:39 55° ENE 20:08:57 10° SSE
Cosmos 304 Rocket 3.8 19:59:38 10° S 20:04:19 61° ESE 20:09:04 10° NNE
Cosmos 2058 Rocket 3.0 20:01:27 10° S 20:05:45 69° E 20:10:05 10° NNE
Cosmos 1953 Rocket 3.4 20:04:01 10° N 20:08:21 75° E 20:12:38 10° S
Cosmos 389 Rocket 4.2 20:07:47 10° SSW 20:11:05 38° WNW 20:14:21 10° N
Meteor 1-24 Rocket 4.4 20:06:39 10° N 20:12:04 36° ENE 20:17:18 10° SE
Cosmos 841 Rocket 3.4 20:09:55 10° SSW 20:15:03 88° ESE 20:20:13 10° NNE
OE (NEXTSAT) 4.5 20:11:34 10° WNW 20:15:05 75° SW 20:17:48 16° SE
Cosmos 1943 Rocket 2.4 20:09:32 10° NNW 20:15:07 76° WSW 20:20:43 10° SSE
Tiangong 2 4.0 20:14:37 10° WSW 20:15:54 12° SW 20:17:12 10° SSW
SJ-6B 3.2 20:12:28 10° SE 20:16:17 42° ENE 20:20:03 10° N
USA 229 DEB 3.9 20:10:35 10° NNW 20:17:51 88° WSW 20:25:13 10° SSE
USA 229 3.9 20:10:42 10° NNW 20:17:56 89° WSW 20:25:18 10° SSE
TIMED 4.4 20:13:39 10° NNW 20:18:02 75° ENE 20:22:22 10° SSE
Cosmos 1356 Rocket 3.9 20:15:21 10° N 20:19:25 40° ENE 20:23:29 10° SSE
Meteor 2-13 Rocket 4.5 20:14:37 10° S 20:20:43 86° W 20:26:50 10° N
Cosmos 1937 Rocket 3.5 20:16:59 10° NNW 20:22:18 87° WSW 20:27:33 10° SSE
ALOS 2.6 20:17:52 10° S 20:22:30 67° W 20:27:09 10° NNW
Cosmos 2298 Rocket 4.2 20:23:13 10° NNW 20:28:33 75° WSW 20:33:50 10° S
NOSS 3-1 (C) 4.2 20:23:57 10° NNW 20:31:40 62° ENE 20:38:46 15° SE
HJ-1C 3.3 20:30:30 14° SSE 20:33:13 63° ENE 20:36:32 10° N
H-2A R/B 2.6 20:31:21 10° SSE 20:35:03 88° ENE 20:38:48 10° N
FREGAT/IRIS 3.2 20:32:34 10° S 20:35:32 57° W 20:38:32 10° NNW
Cosmos 540 Rocket 3.3 20:30:44 10° S 20:35:45 66° ESE 20:40:50 10° NNE
Meteor 1-22 Rocket 4.3 20:42:00 10° S 20:47:47 82° W 20:53:23 10° N
MOS 1-B Rocket 4.3 20:46:10 25° SE 20:49:26 45° ENE 20:54:52 10° N
Meteor 2-5 Rocket 4.3 20:43:57 10° NNW 20:49:42 61° W 20:55:17 10° S
Cosmos 1656 Rocket 3.6 20:45:53 10° NNW 20:51:32 88° WSW 20:55:52 17° SSE
Cosmos 1766 3.6 20:49:03 10° SSW 20:52:56 64° W 20:56:50 10° N
COSMOS 2406 3.5 20:48:24 10° SSW 20:54:03 69° WNW 20:59:47 10° NNE
CZ-3 Stage 3 3.0 20:56:48 10° SW 20:56:52 11° SW 20:56:52 11° SW
BREEZE M DEB (TANK) 3.4 20:55:32 10° NW 21:00:22 39° NNE 21:00:22 39° NNE
Centaur AC-116 4.4 20:56:05 10° W 21:01:01 23° SSW 21:01:46 21° S
Cosmos 2154 Rocket 3.9 20:56:41 10° S 21:02:49 71° E 21:09:03 10° N
Spot 2 Rocket 3.5 21:01:55 48° ESE 21:02:55 58° ENE 21:07:52 10° N
Resurs 1-3 3.4 21:06:53 69° E 21:07:07 71° ENE 21:11:29 10° N
Cosmos 1544 4.4 21:07:45 10° SSW 21:11:09 39° W 21:14:34 10° N
Cosmos 2341 Rocket 3.9 21:10:05 27° SSE 21:13:24 59° E 21:19:29 10° NNE
In-Cosmos 22 4.5 21:12:17 10° NNW 21:17:58 69° W 21:22:36 16° S
Cosmos 783 Rocket 4.4 21:15:02 10° SSW 21:20:15 90° NNW 21:25:28 10° NNE
Resurs 01 Rocket 2.1 21:28:06 56° WSW 21:28:27 58° WSW 21:32:49 10° NNW
Cosmos 1125 Rocket 3.5 21:26:50 10° NNW 21:32:09 77° WSW 21:32:25 75° SW
FALCON 9 R/B 2.2 21:30:51 10° W 21:34:30 87° N 21:34:48 81° ENE
Envisat 3.1 21:34:58 70° WSW 21:35:11 71° WSW 21:40:16 10° NNW
GEOS 3 Rocket 3.7 21:34:02 54° NNE 21:35:18 81° WNW 21:40:40 10° SW
GP-B 4.1 21:33:52 10° NNW 21:38:07 45° W 21:38:39 43° WSW
ISS -0.8 21:35:34 10° WSW 21:36:16 15° W 21:36:16 15° W
Nadezhda 3 Rocket 4.0 21:32:58 10° N 21:39:15 77° W 21:40:53 51° SSW
Cosmos 372 Rocket 4.2 21:35:59 10° NNW 21:40:49 68° WNW 21:40:49 68° WNW
ATLAS 2AS CENTAUR R/B 3.9 21:57:07 10° NNW 22:02:58 35° NNE 22:02:58 35° NNE
